FW5198 Weather Reports


time (UTC)temp
C
wind
direction
speed
KPH
gust
KPH
rain 1hr
cm
rain 24hr
cm
rain mn
cm
humidity
%
barometer
mb
20260906124550 23 29 0.0 8.0 0.00 0.00 0.00 91 1014.0
20260906123048 23 52 0.0 6.4 0.00 0.00 0.00 92 1014.0
20260906121554 23 32 1.6 6.4 0.00 0.00 0.00 93 1014.1
20260906120050 22 25 1.6 11.3 0.00 0.00 0.00 94 1013.8
20260906114557 22 46 3.2 9.7 0.00 0.00 0.00 94 1013.5
20260906113054 22 0 1.6 6.4 0.00 0.00 0.00 95 1013.3
20260906111545 22 0 1.6 6.4 0.00 0.00 0.00 95 1013.4
20260906110049 22 41 1.6 4.8 0.00 0.00 0.00 95 1013.2
20260906104548 22 48 0.0 6.4 0.00 0.00 0.00 95 1013.2
20260906103048 22 40 3.2 8.0 0.00 0.00 0.00 93 1013.2
20260906101546 22 39 3.2 6.4 0.00 0.00 0.00 93 1013.1
20260906100050 22 57 3.2 9.7 0.00 0.00 0.00 91 1013.2
20260906094548 22 0 1.6 6.4 0.00 0.00 0.00 91 1013.2
20260906093045 22 30 0.0 3.2 0.00 0.00 0.00 89 1013.1
20260906091550 22 25 0.0 6.4 0.00 0.00 0.00 88 1012.9
20260906090054 23 37 0.0 8.0 0.00 0.00 0.00 87 1012.9
20260906084548 23 39 1.6 6.4 0.00 0.00 0.00 85 1012.8
20260906083053 23 0 0.0 8.0 0.00 0.00 0.00 86 1012.8
20260906081553 23 34 3.2 6.4 0.00 0.00 0.00 86 1012.9
20260906080046 24 0 1.6 6.4 0.00 0.00 0.00 85 1012.8
20260906074604 25 38 0.0 4.8 0.00 0.00 0.00 83 1012.8
20260906073053 25 0 0.0 6.4 0.00 0.00 0.00 81 1013.0
20260906071547 26 0 1.6 8.0 0.00 0.00 0.00 80 1013.0
20260906070055 26 0 1.6 12.9 0.00 0.00 0.00 79 1013.4
20260906064548 26 13 3.2 9.7 0.00 0.00 0.00 82 1013.3
20260906063049 27 1 3.2 11.3 0.00 0.00 0.00 84 1013.2
20260906061550 27 0 0.0 8.0 0.00 0.00 0.00 82 1012.9
20260906060058 26 0 0.0 1.6 0.00 0.00 0.00 87 1012.8
20260906054548 26 0 0.0 1.6 0.00 0.00 0.00 88 1012.8
20260906053046 26 0 0.0 1.6 0.00 0.00 0.00 89 1013.0
20260906051558 25 0 0.0 1.6 0.00 0.00 0.00 92 1012.8
20260906050056 25 0 0.0 1.6 0.00 0.00 0.00 91 1012.8
20260906044551 25 0 0.0 1.6 0.00 0.00 0.00 92 1012.8
20260906043046 25 0 0.0 1.6 0.00 0.00 0.00 91 1012.8
20260906041554 25 0 0.0 1.6 0.00 0.00 0.00 90 1012.7
20260906040050 26 0 0.0 1.6 0.00 0.00 0.00 90 1013.1
20260906034546 26 0 0.0 0.0 0.00 0.00 0.00 90 1013.0
20260906033048 26 0 0.0 1.6 0.00 0.00 0.00 89 1012.8
20260906031600 26 0 0.0 1.6 0.00 0.00 0.00 88 1012.8
20260906030048 26 0 0.0 0.0 0.00 0.00 0.00 89 1012.7
20260906024546 27 0 0.0 1.6 0.00 0.00 0.00 88 1012.4
20260906023050 27 0 0.0 0.0 0.00 0.00 0.00 89 1012.2
20260906021555 27 0 0.0 1.6 0.00 0.00 0.00 88 1011.9
20260906020057 27 0 0.0 1.6 0.00 0.00 0.00 87 1012.1
20260906014546 27 0 0.0 1.6 0.00 0.00 0.00 87 1012.2
20260906013048 28 44 0.0 1.6 0.00 0.00 0.00 86 1012.0
20260906011550 28 44 0.0 1.6 0.00 0.00 0.00 85 1012.0
20260906010047 28 44 0.0 0.0 0.00 0.00 0.00 85 1011.9
20260906004553 29 44 0.0 1.6 0.00 0.00 0.00 82 1011.7
20260906003049 30 44 0.0 1.6 0.00 0.00 0.00 80 1011.9
20260906001548 30 44 0.0 1.6 0.00 0.00 0.00 79 1011.9
20260906000046 31 0 0.0 1.6 0.00 0.00 0.00 75 1011.9
20260905234553 32 44 0.0 1.6 0.00 0.00 0.00 73 1012.1
20260905233049 33 44 0.0 1.6 0.00 0.00 0.00 68 1012.2
20260905231546 34 43 0.0 4.8 0.00 0.00 0.00 64 1011.8
20260905230054 35 48 1.6 3.2 0.00 0.00 0.00 58 1011.9
20260905224601 35 46 1.6 4.8 0.00 0.00 0.00 58 1011.8
20260905223053 36 25 1.6 8.0 0.00 0.00 0.00 55 1011.9
20260905221556 35 38 1.6 8.0 0.00 0.00 0.00 55 1011.8
20260905220106 35 91 0.0 11.3 0.00 0.00 0.00 55 1012.0
20260905214549 36 0 3.2 9.7 0.00 0.00 0.00 54 1011.9
20260905213050 36 57 1.6 6.4 0.00 0.00 0.00 53 1012.0
20260905211603 36 46 3.2 9.7 0.00 0.00 0.00 51 1012.1
20260905210056 36 87 1.6 3.2 0.00 0.00 0.00 52 1012.1
20260905204555 36 200 1.6 6.4 0.00 0.00 0.00 51 1012.3
20260905203111 36 54 1.6 6.4 0.00 0.00 0.00 51 1012.5
20260905201547 36 1 3.2 14.5 0.00 0.00 0.00 51 1012.8
20260905200054 36 25 6.4 12.9 0.00 0.00 0.00 52 1013.0
20260905194551 36 29 1.6 8.0 0.00 0.00 0.00 52 1013.1
20260905193048 36 61 6.4 12.9 0.00 0.00 0.00 55 1013.4
20260905191546 36 30 3.2 14.5 0.00 0.00 0.00 54 1013.4
20260905190047 36 15 4.8 12.9 0.00 0.00 0.00 55 1013.8
20260905184600 36 150 1.6 9.7 0.00 0.00 0.00 56 1014.2
20260905183050 35 188 1.6 6.4 0.00 0.00 0.00 57 1014.2
20260905181605 35 69 1.6 6.4 0.00 0.00 0.00 59 1014.4
20260905180051 35 30 1.6 11.3 0.00 0.00 0.00 58 1014.6
20260905174624 35 20 4.8 9.7 0.00 0.00 0.00 59 1014.6
20260905173056 36 154 0.0 3.2 0.00 0.00 0.00 58 1014.7
20260905171549 36 37 0.0 4.8 0.00 0.00 0.00 55 1014.9
20260905170046 35 0 0.0 0.0 0.00 0.00 0.00 58 1015.0
20260905164546 35 0 0.0 0.0 0.00 0.00 0.00 56 1015.2
20260905163050 35 0 0.0 0.0 0.00 0.00 0.00 58 1015.3
20260905161547 34 0 0.0 0.0 0.00 0.00 0.00 60 1015.4
20260905160114 32 0 0.0 0.0 0.00 0.00 0.00 64 1015.5
20260905154551 31 0 0.0 0.0 0.00 0.00 0.00 71 1015.7
20260905153047 31 0 0.0 0.0 0.00 0.00 0.00 72 1015.9
20260905151602 30 0 0.0 0.0 0.00 0.00 0.00 75 1015.8
20260905150055 30 0 0.0 0.0 0.00 0.00 0.00 77 1015.9
20260905144549 28 0 0.0 0.0 0.00 0.00 0.00 82 1016.0
20260905143048 27 0 0.0 0.0 0.00 0.00 0.00 86 1016.0
20260905141550 27 0 0.0 0.0 0.00 0.00 0.00 87 1015.8
20260905140049 27 0 0.0 0.0 0.00 0.00 0.00 87 1015.8
20260905134545 26 0 0.0 0.0 0.00 0.00 0.00 89 1015.7
20260905133052 25 0 0.0 0.0 0.00 0.00 0.00 91 1015.9
20260905131549 25 0 0.0 0.0 0.00 0.00 0.00 91 1015.9
20260905130056 25 0 0.0 0.0 0.00 0.00 0.00 93 1015.8